Погода в Франсхуке

ЮАР     33°54′27″S   19°07′02″E
В апреле 2022 года жителям России запретили посещать сайт meteo.paraplan.net по решению Генеральной прокуратуры. Аудитория сайта уменьшилась в 10 раз. Владельцы сайта не видят смысла в поддержке погодного сервера в таких условиях. Сайт будет закрыт в октябре.
темп.,
°C
ветер,
м/с
пор.,
м/с
влажн.,
%
обл.,
%
осадки,
мм/ч
давл.,
гПа
погр.,
м
4 октября, вт
вт423:00+8сз01930 0.0 102113
02:00+7юв01930 0.1 102110
05:00+7юв119142 0.0 102116
08:00+11ююв11665 0.0 1021589
11:00+17юз11400 0.0 10191126
14:00+18зюз43423 0.0 10171203
17:00+14юз32586 0.0 1017615
20:00+8ююв33820 0.0 101957
5 октября, ср
ср523:00+7вюв33880 0.0 101953
02:00+6вюв22928 0.0 101832
05:00+6в11915 0.0 101713
08:00+11з117083 0.0 1018241
11:00+15з3243100 0.0 1017846
14:00+18зсз34371 0.0 10161153
17:00+16з33510 0.0 1015821
20:00+9зсз11936 0.0 101819
6 октября, чт
чт623:00+8ссз119820 0.0 101830
02:00+8ссз349863 0.0 1018127
05:00+9ссз359579 0.0 1018286
08:00+11сз458258 0.0 1020572
11:00+14сз466683 0.1 10201149
14:00+15зсз465981 0.1 10191276
17:00+14з3471100 0.2 1019849
20:00+11зюз239395 0.6 1023247
7 октября, пт
пт723:00+9ю228830 0.0 1024177
02:00+8юв338627 0.0 1024128
05:00+7вюв329079 0.0 102431
08:00+11вюв34700 0.0 1026370
11:00+18вюв23380 0.0 10241103
14:00+23юв12260 0.0 10201479
17:00+21ююз02355 0.0 1019773
20:00+12вюв44705 0.0 102080
8 октября, сб
сб823:00+10в4479100 0.0 102068
02:00+10вюв44756 0.0 101859
05:00+9вюв448215 0.0 101872
08:00+14вюв44606 0.0 1018172
11:00+24ююв222912 0.0 1016738
14:00+28ю232247 0.0 10141576
17:00+24юв343712 0.0 1014910
20:00+14вюв568097 0.0 1016205